Weather History for Escanaba, MI

Change the Weather History Date:

Tuesday, March 25, 2014

  Actual Average Record
Temperature  
Mean Temperature 10 °F -  
Max Temperature 19 °F 39 °F 53 °F (1988)
Min Temperature 0 °F 21 °F -3 °F (1971)
Degree Days  
Heating Degree Days 56    
Moisture  
Dew Point 2 °F    
Average Humidity 62    
Maximum Humidity 92    
Minimum Humidity 35    
Precipitation  
Precipitation 0.00 in - - ()
Sea Level Pressure  
Sea Level Pressure 30.01 in    
Wind  
Wind Speed 7 mph (NW)    
Max Wind Speed 18 mph    
Max Gust Speed 24 mph    
Visibility 10 miles    
Events      
Averages and records for this station are not official NWS values.
T = Trace of Precipitation, MM = Missing Value Source: NWS Daily Summary

Daily Weather History Graph

Daily Weather History Graph

Search for Another Location

Airport:

Trip Planner

Search our weather history database for the weather conditions in past years. The results will help you decide how hot, cold, wet, or windy it might be!

Date:

Astronomy

Mar. 25, 2014 Rise Set
Actual Time 7:41 AM EDT 8:07 PM EDT
Civil Twilight 7:12 AM EDT 8:37 PM EDT
Nautical Twilight 6:36 AM EDT 9:12 PM EDT
Astronomical Twilight 6:00 AM EDT 9:49 PM EDT
Moon 4:18 AM EDT (3/25) 2:22 PM EDT (3/25)
Length of Visible Light 13h 25m
Length of Day
12h 25m
Waning Crescent, 32% of the Moon is Illuminated
Mar 25
Waning Crescent
Mar 30
New
Apr 7
First Quarter
Apr 15
Full
Apr 22
Last Quarter

Hourly Weather History & Observations

Time (EDT) Temp. Windchill Dew Point Humidity Pressure Visibility Wind Dir Wind Speed Gust Speed Precip Events Conditions
12:15 AM 14.0 °F - 3.2 °F 62% 29.95 in 10.0 mi Calm Calm - N/A   Partly Cloudy
12:35 AM 12.2 °F - 3.2 °F 67% 29.94 in 10.0 mi Calm Calm - N/A   Mostly Cloudy
12:55 AM 10.4 °F 4.0 °F 1.4 °F 67% 29.94 in 10.0 mi WSW 3.5 mph - N/A   Overcast
1:15 AM 12.2 °F 4.3 °F 3.2 °F 67% 29.93 in 10.0 mi West 4.6 mph - N/A   Mostly Cloudy
1:35 AM 12.2 °F 6.1 °F 5.0 °F 73% 29.93 in 10.0 mi West 3.5 mph - N/A   Mostly Cloudy
1:55 AM 10.4 °F 4.0 °F 1.4 °F 67% 29.92 in 10.0 mi West 3.5 mph - N/A   Partly Cloudy
2:15 AM 10.4 °F 4.0 °F 3.2 °F 73% 29.91 in 10.0 mi West 3.5 mph - N/A   Clear
2:35 AM 10.4 °F 2.2 °F 3.2 °F 73% 29.90 in 10.0 mi West 4.6 mph - N/A   Clear
2:55 AM 8.6 °F 2.0 °F 1.4 °F 73% 29.90 in 10.0 mi West 3.5 mph - N/A   Clear
3:15 AM 8.6 °F 0.1 °F 1.4 °F 73% 29.90 in 10.0 mi West 4.6 mph - N/A   Clear
3:35 AM 8.6 °F -1.3 °F 1.4 °F 73% 29.90 in 10.0 mi West 5.8 mph - N/A   Mostly Cloudy
3:55 AM 12.2 °F -0.2 °F 6.8 °F 79% 29.90 in 10.0 mi NW 9.2 mph - N/A   Overcast
4:15 AM 14.0 °F 2.0 °F 10.4 °F 86% 29.90 in 2.5 mi WNW 9.2 mph - N/A   Overcast
4:35 AM 15.8 °F 6.1 °F 8.6 °F 73% 29.90 in 10.0 mi WNW 6.9 mph - N/A   Mostly Cloudy
4:55 AM 14.0 °F 5.1 °F 8.6 °F 79% 29.90 in 10.0 mi WNW 5.8 mph - N/A   Mostly Cloudy
5:15 AM 14.0 °F 2.9 °F 10.4 °F 86% 29.90 in 10.0 mi WNW 8.1 mph - N/A   Overcast
5:35 AM 14.0 °F 2.0 °F 8.6 °F 79% 29.90 in 10.0 mi WNW 9.2 mph - N/A   Overcast
5:55 AM 12.2 °F 1.7 °F 6.8 °F 79% 29.90 in 10.0 mi WNW 6.9 mph - N/A   Mostly Cloudy
6:15 AM 12.2 °F -0.2 °F 6.8 °F 79% 29.90 in 10.0 mi WNW 9.2 mph - N/A   Partly Cloudy
6:35 AM 12.2 °F -0.2 °F 8.6 °F 85% 29.91 in 10.0 mi WNW 9.2 mph - N/A   Partly Cloudy
6:55 AM 12.2 °F 0.7 °F 6.8 °F 79% 29.92 in 10.0 mi WNW 8.1 mph - N/A   Clear
7:15 AM 12.2 °F 0.7 °F 6.8 °F 79% 29.92 in 10.0 mi NW 8.1 mph - N/A   Clear
7:35 AM 12.2 °F 1.7 °F 6.8 °F 79% 29.94 in 10.0 mi NW 6.9 mph - N/A   Mostly Cloudy
7:55 AM 12.2 °F 0.7 °F 6.8 °F 79% 29.95 in 10.0 mi NW 8.1 mph - N/A   Mostly Cloudy
8:15 AM 12.2 °F 1.7 °F 6.8 °F 79% 29.96 in 9.0 mi NW 6.9 mph - N/A   Overcast
8:35 AM 12.2 °F 1.7 °F 8.6 °F 85% 29.96 in 8.0 mi NW 6.9 mph - N/A   Mostly Cloudy
8:55 AM 12.2 °F 1.7 °F 6.8 °F 79% 29.97 in 8.0 mi NW 6.9 mph - N/A   Mostly Cloudy
9:15 AM 14.0 °F 0.5 °F 6.8 °F 73% 29.98 in 5.0 mi NNW 11.5 mph 16.1 mph N/A   Mostly Cloudy
9:35 AM 14.0 °F 0.5 °F 6.8 °F 73% 29.98 in 9.0 mi NNW 11.5 mph 18.4 mph N/A   Mostly Cloudy
9:55 AM 15.8 °F 0.9 °F 6.8 °F 68% 29.98 in 10.0 mi NW 15.0 mph 20.7 mph N/A   Mostly Cloudy
10:15 AM 14.0 °F -0.2 °F 6.8 °F 73% 30.00 in 5.0 mi NW 12.7 mph 16.1 mph N/A   Overcast
10:35 AM 15.8 °F 1.4 °F 5.0 °F 62% 30.00 in 10.0 mi NNW 13.8 mph 17.3 mph N/A   Mostly Cloudy
10:55 AM 15.8 °F 1.4 °F 1.4 °F 53% 30.01 in 10.0 mi NW 13.8 mph 18.4 mph N/A   Mostly Cloudy
11:15 AM 15.8 °F 1.4 °F 6.8 °F 68% 30.02 in 10.0 mi NNW 13.8 mph 20.7 mph N/A   Mostly Cloudy
11:35 AM 17.6 °F 5.7 °F -0.4 °F 45% 30.02 in 10.0 mi NNW 10.4 mph 16.1 mph N/A   Overcast
11:55 AM 17.6 °F 5.7 °F -0.4 °F 45% 30.02 in 10.0 mi NNW 10.4 mph - N/A   Overcast
12:15 PM 17.6 °F 3.2 °F -0.4 °F 45% 30.03 in 10.0 mi NNW 15.0 mph 21.9 mph N/A   Overcast
12:35 PM 17.6 °F 2.7 °F -2.2 °F 42% 30.03 in 10.0 mi NNW 16.1 mph 23.0 mph N/A   Overcast
12:55 PM 17.6 °F 3.7 °F -0.4 °F 45% 30.04 in 10.0 mi NNW 13.8 mph 23.0 mph N/A   Overcast
1:15 PM 17.6 °F 5.0 °F -0.4 °F 45% 30.04 in 10.0 mi NW 11.5 mph 19.6 mph N/A   Overcast
1:35 PM 17.6 °F 3.7 °F -2.2 °F 42% 30.04 in 10.0 mi North 13.8 mph 24.2 mph N/A   Overcast
1:55 PM 17.6 °F 6.4 °F -2.2 °F 42% 30.04 in 10.0 mi NW 9.2 mph 23.0 mph N/A   Overcast
2:15 PM 17.6 °F 2.7 °F -2.2 °F 42% 30.04 in 10.0 mi NW 16.1 mph 23.0 mph N/A   Overcast
2:35 PM 17.6 °F 4.3 °F -2.2 °F 42% 30.03 in 10.0 mi WNW 12.7 mph 20.7 mph N/A   Overcast
2:55 PM 17.6 °F 3.7 °F -0.4 °F 45% 30.04 in 10.0 mi NNW 13.8 mph 20.7 mph N/A   Overcast
3:15 PM 17.6 °F 5.0 °F -0.4 °F 45% 30.04 in 10.0 mi WNW 11.5 mph 23.0 mph N/A   Mostly Cloudy
3:35 PM 17.6 °F 3.7 °F -0.4 °F 45% 30.03 in 10.0 mi NW 13.8 mph 23.0 mph N/A   Overcast
3:55 PM 17.6 °F 5.0 °F -2.2 °F 42% 30.03 in 10.0 mi WNW 11.5 mph 20.7 mph N/A   Mostly Cloudy
4:15 PM 19.4 °F 4.1 °F -0.4 °F 42% 30.03 in 10.0 mi WNW 18.4 mph 21.9 mph N/A   Overcast
4:35 PM 19.4 °F 6.0 °F 1.4 °F 46% 30.04 in 10.0 mi North 13.8 mph 17.3 mph N/A   Overcast
4:55 PM 17.6 °F 4.3 °F -0.4 °F 45% 30.04 in 10.0 mi NW 12.7 mph - N/A   Overcast
5:15 PM 19.4 °F 6.6 °F 1.4 °F 46% 30.04 in 10.0 mi NNW 12.7 mph 18.4 mph N/A   Overcast
5:35 PM 19.4 °F 7.2 °F 1.4 °F 46% 30.04 in 10.0 mi NW 11.5 mph 16.1 mph N/A   Overcast
5:55 PM 17.6 °F 2.7 °F -5.8 °F 35% 30.05 in 10.0 mi NW 16.1 mph 20.7 mph N/A   Mostly Cloudy
6:15 PM 17.6 °F 3.2 °F -2.2 °F 42% 30.05 in 10.0 mi WNW 15.0 mph 20.7 mph N/A   Mostly Cloudy
6:35 PM 17.6 °F 3.2 °F -2.2 °F 42% 30.06 in 10.0 mi WNW 15.0 mph 20.7 mph N/A   Mostly Cloudy
6:55 PM 17.6 °F 6.4 °F 3.2 °F 53% 30.07 in 10.0 mi NW 9.2 mph - N/A   Mostly Cloudy
7:15 PM 17.6 °F 5.0 °F -2.2 °F 42% 30.08 in 10.0 mi WNW 11.5 mph - N/A   Mostly Cloudy
7:35 PM 17.6 °F 6.4 °F 1.4 °F 49% 30.09 in 10.0 mi NNW 9.2 mph - N/A   Mostly Cloudy
7:55 PM 15.8 °F 4.2 °F -0.4 °F 49% 30.10 in 10.0 mi NW 9.2 mph - N/A   Scattered Clouds
8:15 PM 15.8 °F 4.2 °F -0.4 °F 49% 30.11 in 10.0 mi NW 9.2 mph - N/A   Clear
8:35 PM 14.0 °F 3.9 °F -2.2 °F 49% 30.12 in 10.0 mi NNW 6.9 mph - N/A   Clear
8:55 PM 14.0 °F 8.2 °F -2.2 °F 49% 30.12 in 10.0 mi NW 3.5 mph - N/A   Clear
9:15 PM 12.2 °F - -2.2 °F 53% 30.13 in 10.0 mi Calm Calm - N/A   Clear
9:35 PM 10.4 °F - -5.8 °F 48% 30.13 in 10.0 mi Calm Calm - N/A   Clear
9:55 PM 8.6 °F - -2.2 °F 62% 30.13 in 10.0 mi Calm Calm - N/A   Clear
10:15 PM 5.0 °F - -7.6 °F 56% 30.13 in 10.0 mi Calm Calm - N/A   Clear
10:35 PM 3.2 °F - -2.2 °F 78% 30.13 in 10.0 mi Calm Calm - N/A   Clear
10:55 PM 1.4 °F - -2.2 °F 85% 30.13 in 10.0 mi Calm Calm - N/A   Clear
11:15 PM 1.4 °F -6.2 °F -2.2 °F 85% 30.14 in 10.0 mi WNW 3.5 mph - N/A   Partly Cloudy
11:35 PM -0.4 °F - -7.6 °F 72% 30.14 in 10.0 mi Calm Calm - N/A   Mostly Cloudy
11:55 PM 1.4 °F - -0.4 °F 92% 30.13 in 10.0 mi Calm Calm - N/A   Mostly Cloudy